Regional Weather Roundup
Issued by NWS

Home | Current Version | Previous Version | Text Only | Print | Product List | Glossary Off
Versions: 1 2 3 4 5 6 7 8 9 10 11 12 13 14 15 16 17 18 19 20 21 22 23 24 25 26 27 28 29 30 31 32 33 34 35 36 37 38 39 40 41 42 43 44 45 46 47 48 49 50

000
ASUS44 KOUN 310700
RWROK

WEATHER ROUNDUP FOR OKLAHOMA
NATIONAL WEATHER SERVICE NORMAN OK
200 AM CDT FRI OCT 31 2014

NOTE: "FAIR" INDICATES FEW OR NO CLOUDS BELOW 12,000 FEET WITH NO
      SIGNIFICANT WEATHER AND/OR OBSTRUCTIONS TO VISIBILITY.

OKZ001>007-009>012-014-015-017-310800-
NORTHWEST OKLAHOMA AND THE PANHANDLE

CITY           SKY/WX    TMP DP  RH WIND       PRES   REMARKS
GAGE           CLEAR     42  32  67 N6        30.36R
$$

OKZ016-021>023-033>039-044-045-310800-
SOUTHWEST OKLAHOMA

CITY           SKY/WX    TMP DP  RH WIND       PRES   REMARKS
LAWTON/REGL    CLEAR     57  35  43 N12       30.26R
FREDERICK      CLEAR     53  34  48 N10       30.25R
CLINTON        CLEAR     51  35  54 N9        30.32R
HOBART         CLEAR     50  33  52 N12       30.29R
ALTUS AFB      CLEAR     49  33  54 N3        30.29R
$$

OKZ018>020-024>031-310800-
CENTRAL OKLAHOMA

CITY           SKY/WX    TMP DP  RH WIND       PRES   REMARKS
OKLAHOMA CITY  CLEAR     57  35  43 N14       30.25R
OKC/WILEY POST CLEAR     52  37  56 N8        30.27R
STILLWATER     CLEAR     53  38  56 N9        30.26R
GUTHRIE        CLEAR     53  37  54 N6        30.27R
$$

OKZ008-013-054>072-310800-
NORTHEAST OKLAHOMA

CITY           SKY/WX    TMP DP  RH WIND       PRES   REMARKS
TULSA          CLEAR     53  41  63 N13       30.20R
TULSA/JONES    CLEAR     57  40  52 N10G18    30.22R
PONCA CITY     CLEAR     52  38  58 N15       30.27R
BARTLESVILLE   CLEAR     53  40  61 N13G20    30.24R
MUSKOGEE       CLEAR     54  40  59 N12       30.19R
$$

OKZ032-040>043-046>053-073>077-310800-
SOUTH CENTRAL/SOUTHEAST OKLAHOMA

CITY           SKY/WX    TMP DP  RH WIND       PRES   REMARKS
MCALESTER      PTCLDY    58  40  51 N12       30.18R
$$




USA.gov is the U.S. government's official web portal to all federal, state and local government web resources and services.